Theta_e
306 308 309 308 309 298 303 304 301 304 312 307 305 303 302 304 302 300 310 307 310 314 316 319 321 321 322 324 323 323 325 327 331 330 331 332 333 335 337 338 340 343 344 347 347 349 348 349 349 350 353 354 354 355 355 356 357 359 360 360 360 361 362
305 308 310 309 309 310 304 300 305 308 310 311 307 298 302 300 296 301 304 303 306 306 303 322 317 318 319 322 324 323 326 329 328 329 332 333 333 335 339 341 343 343 344 346 346 348 348 349 350 352 355 356 356 357 357 357 358 358 359 360 360 361 361
307 306 306 306 309 310 307 305 311 303 300 299 311 305 295 295 295 297 301 305 306 308 307 314 316 317 319 323 326 324 324 325 326 329 332 334 335 335 337 338 340 341 343 345 347 347 349 351 353 354 355 355 356 358 358 357 357 358 359 359 361 361 362
305 305 304 298 302 306 306 308 307 308 307 307 302 302 308 302 297 296 298 301 301 310 311 313 313 321 327 324 324 324 323 325 327 329 330 333 335 336 336 337 339 341 342 343 345 346 348 350 352 353 354 354 353 355 357 358 359 361 361 361 361 360 361
303 299 302 301 303 301 302 303 303 304 306 308 308 307 304 300 299 298 298 296 303 311 317 316 319 322 326 324 322 329 327 326 327 330 331 333 335 335 337 338 339 340 341 342 344 347 349 351 353 352 351 352 353 354 355 357 358 359 359 360 361 360 361
299 302 306 305 305 305 304 303 302 304 303 301 298 298 303 303 301 297 298 296 307 313 318 320 320 323 323 326 327 327 327 328 329 329 331 334 334 337 338 338 339 340 342 343 345 347 350 350 350 350 351 352 353 354 354 356 356 357 357 359 360 361 361
302 305 307 308 308 308 306 306 303 306 306 306 302 295 300 302 303 305 306 301 304 320 321 320 322 322 321 323 325 323 324 327 328 329 328 334 337 336 336 338 338 340 343 344 346 348 350 350 351 351 352 352 353 354 355 356 356 357 357 359 361 362 359
307 307 306 306 305 306 304 305 306 305 303 304 303 303 309 302 304 301 301 299 304 319 324 322 320 328 327 328 323 325 324 325 329 328 329 335 336 337 337 339 339 342 344 347 349 350 350 351 352 352 353 353 354 354 355 355 356 357 358 359 360 360 357
300 302 305 304 305 304 303 303 305 306 306 306 307 310 310 302 305 302 301 295 303 316 325 323 321 319 319 320 323 325 324 329 328 329 332 334 337 338 337 339 341 343 343 345 347 349 351 351 351 353 353 353 353 354 355 355 356 358 359 360 359 359 358
291 291 292 295 299 301 303 305 304 305 305 306 304 300 305 297 309 309 301 301 311 321 322 320 321 321 321 323 323 323 325 329 328 329 330 335 336 338 339 341 342 341 345 347 348 349 350 350 351 353 354 354 354 355 356 356 356 358 358 359 359 358 357
297 300 304 309 307 303 300 302 303 303 304 306 306 310 303 298 305 303 305 309 308 313 315 319 319 322 321 321 327 326 327 328 330 332 333 334 336 337 336 340 342 346 345 345 347 349 349 349 351 352 352 353 353 355 356 356 357 358 359 359 359 358 356
306 305 306 307 306 303 303 302 302 304 304 305 304 303 301 316 303 297 308 314 309 312 316 320 322 323 326 327 329 328 329 330 329 330 334 333 334 336 339 339 340 341 344 347 347 348 348 349 351 351 352 353 353 355 354 355 356 357 358 359 359 358 355
305 306 306 306 305 305 305 304 304 303 304 305 303 306 307 312 302 299 310 315 312 314 315 319 323 326 326 325 327 329 330 329 330 330 329 330 331 334 334 338 342 343 342 345 346 347 348 349 349 350 351 352 354 355 355 356 355 356 359 359 359 357 355
303 304 305 306 304 304 304 304 305 305 304 304 305 306 308 309 310 310 314 316 313 313 315 319 322 327 327 330 331 328 326 325 330 329 330 330 331 332 333 337 339 342 343 345 346 347 348 348 349 349 350 352 352 352 352 354 355 357 360 359 358 356 353
302 304 305 304 303 303 302 304 304 305 305 305 305 305 307 310 309 312 311 315 314 318 324 324 329 331 324 323 322 323 328 330 328 328 329 331 331 332 335 339 339 342 343 345 346 346 347 347 348 348 350 351 352 350 353 354 356 359 359 358 357 355 352
301 303 303 303 303 303 302 303 304 303 302 302 303 304 309 306 307 309 308 309 309 316 320 319 322 323 325 324 327 329 330 328 330 330 330 331 333 333 335 337 338 340 341 343 344 344 345 347 348 349 350 350 350 350 353 354 355 357 356 356 354 355 354
302 305 304 303 302 301 298 300 303 305 304 305 306 306 310 308 309 308 306 306 315 317 322 319 320 320 323 325 326 329 331 332 330 331 332 333 333 335 337 337 338 338 339 341 344 343 345 345 346 348 350 348 350 352 352 355 357 356 354 354 354 354 353
302 304 301 301 299 293 295 307 308 307 305 305 304 304 306 309 312 310 314 315 321 321 320 317 320 321 324 327 332 332 333 333 332 332 334 333 334 334 335 336 337 340 341 341 343 344 346 346 346 346 348 349 351 354 355 357 356 355 355 354 354 353 352
301 303 301 298 293 296 311 316 314 309 308 308 306 307 309 310 313 315 312 315 318 321 320 322 324 327 330 326 326 324 325 329 331 331 332 334 333 335 337 337 337 340 341 343 344 344 344 345 346 346 347 349 352 353 355 354 355 354 354 353 353 352 349
304 302 300 292 295 307 311 312 315 313 310 310 308 309 312 316 314 315 314 317 320 324 321 321 323 322 324 325 327 327 326 329 330 328 329 331 333 335 336 339 341 342 340 342 340 343 346 348 347 346 347 348 350 352 354 353 353 353 353 352 352 351 348
299 302 300 299 308 306 309 309 312 312 310 307 305 302 308 317 319 318 316 319 320 320 321 322 321 322 321 323 325 325 324 326 327 330 333 333 334 337 339 339 341 347 346 347 348 351 347 346 346 346 349 349 350 351 351 351 352 351 351 350 350 349 347
305 301 298 300 299 296 305 313 315 317 316 317 317 315 312 318 319 320 320 320 321 321 320 320 321 325 318 316 320 327 326 325 327 330 332 333 336 339 340 346 345 347 349 350 350 349 348 347 348 349 350 351 351 350 350 350 349 349 349 348 349 348 347
303 302 297 297 296 301 313 313 314 317 318 317 317 311 306 317 319 320 320 319 320 321 320 322 323 318 313 315 323 329 328 325 328 330 331 333 335 338 339 341 343 345 348 351 351 352 351 349 349 350 351 351 350 349 349 347 347 347 347 348 348 346 346
303 301 299 297 302 303 312 314 315 317 319 316 313 301 303 318 320 320 319 317 319 320 324 321 321 318 315 318 323 330 334 328 332 338 339 339 339 341 345 348 350 352 351 351 353 353 353 352 350 351 350 350 350 348 346 347 346 346 347 348 348 348 347
302 301 301 303 306 315 314 314 316 317 318 314 305 298 311 320 322 321 319 319 320 323 322 321 322 325 330 329 331 336 341 342 343 346 346 346 346 345 344 345 347 350 352 352 351 351 350 348 348 349 350 350 348 348 348 346 346 347 348 349 348 346 346
299 304 299 300 305 311 314 317 316 318 310 302 303 316 318 322 322 324 322 320 322 326 331 330 329 330 332 335 339 342 344 345 346 345 345 345 345 346 346 347 347 347 346 346 345 343 346 346 346 347 350 350 347 347 346 346 348 349 348 348 347 346 344
304 303 301 297 293 312 317 314 317 319 310 314 317 321 323 324 325 325 327 327 329 330 329 331 333 334 335 336 337 338 339 341 343 345 346 347 346 347 348 346 346 347 346 344 342 342 342 344 345 346 349 348 346 346 346 347 348 347 347 346 346 344 343
300 302 299 297 308 314 318 314 308 315 317 321 324 325 322 326 327 326 326 327 329 330 330 329 330 331 331 334 336 336 337 337 339 341 344 345 345 343 344 346 346 347 346 345 342 341 341 342 343 345 348 347 345 345 346 346 346 346 346 345 345 343 341
309 306 312 317 319 318 318 317 315 316 319 321 323 325 324 322 322 327 324 324 325 328 329 329 329 328 330 330 332 332 333 335 337 339 341 342 344 346 347 347 348 349 348 347 344 341 340 341 342 343 345 347 345 345 345 344 344 344 344 344 342 342 341
315 316 317 321 320 320 318 318 318 316 316 318 318 319 319 319 321 324 325 326 326 327 329 325 327 327 328 327 327 329 332 335 337 339 339 341 343 345 346 347 346 347 346 346 345 342 339 339 340 341 342 344 344 345 343 343 344 344 344 342 341 340 341
307 300 313 315 315 317 318 315 316 318 317 317 319 319 318 318 320 320 322 323 324 326 328 328 327 328 329 329 331 334 335 335 337 337 338 338 339 341 342 343 346 347 348 344 342 343 341 337 337 337 339 340 343 342 341 342 343 344 343 341 340 340 339
309 311 313 316 317 318 318 317 313 314 315 314 316 317 318 319 319 319 320 322 322 325 325 328 328 329 332 333 333 332 334 336 338 338 338 339 338 337 337 339 341 343 345 344 342 341 341 339 338 338 338 339 340 340 339 339 340 342 341 340 339 339 339
311 314 316 315 316 315 315 315 315 315 315 315 315 316 317 317 316 316 317 318 318 320 323 327 329 328 330 332 333 332 334 335 335 336 337 339 339 340 342 342 342 343 343 342 341 341 340 339 339 338 339 339 340 340 340 340 340 340 341 339 339 340 339
306 307 308 312 308 308 312 314 314 315 317 318 317 316 316 316 316 316 314 315 317 317 319 320 321 321 323 325 328 326 330 332 336 338 339 339 338 337 338 339 341 341 340 341 340 340 340 339 339 339 339 339 339 338 340 339 339 339 339 338 336 336 337
306 312 314 312 314 313 316 314 315 316 317 318 315 313 314 315 317 317 315 314 314 315 317 320 320 320 321 322 322 321 321 323 327 331 334 336 337 337 338 339 340 340 339 339 339 339 340 339 340 339 339 338 339 338 338 339 337 337 338 336 335 335 335
309 311 312 313 311 309 313 315 316 316 316 316 314 316 315 314 315 316 316 317 314 315 317 318 320 320 320 321 321 321 322 322 324 325 328 331 334 336 338 338 339 340 340 339 339 338 339 339 340 340 338 338 338 337 339 339 338 338 338 336 335 335 334
309 313 313 313 312 312 313 315 317 318 320 316 314 314 315 315 315 316 316 316 318 318 317 317 318 320 320 320 321 321 322 321 323 323 326 328 329 332 333 334 337 339 339 339 338 338 338 339 339 339 339 339 339 338 339 339 339 338 337 336 335 335 334
Wind_Speed
9 11 8 8 11 12 7 5 14 9 6 10 5 3 5 4 2 7 5 4 6 5 11 15 11 7 13 8 10 10 12 13 11 12 14 16 17 17 17 17 16 17 16 16 16 16 16 16 16 16 17 17 18 17 16 17 17 15 16 16 15 14 13
9 7 11 12 12 3 7 11 9 6 4 3 6 9 3 7 9 5 6 8 6 4 5 1 2 7 12 13 12 14 8 10 13 14 14 15 17 19 19 18 17 18 19 20 19 17 19 19 19 18 18 17 16 15 16 17 15 16 16 15 15 14 14
10 6 4 9 11 5 9 5 13 13 7 11 1 3 8 8 9 6 5 9 8 8 7 0 5 5 9 11 11 7 8 11 15 14 15 15 16 15 15 18 16 16 16 17 17 18 19 18 18 18 18 16 13 13 14 16 18 19 17 13 13 11 13
4 6 10 15 14 5 4 4 12 2 4 7 9 7 1 5 9 4 7 6 9 8 7 7 12 9 9 12 9 8 13 15 13 13 14 14 14 15 16 17 17 17 18 20 21 20 19 19 17 16 17 16 18 17 16 16 16 14 14 14 14 14 14
5 9 8 15 14 13 8 8 8 5 3 3 2 2 8 8 8 7 8 8 5 5 7 11 12 11 10 12 13 10 9 11 14 13 13 13 15 15 15 16 16 18 19 20 19 18 17 17 16 16 16 18 18 17 17 18 17 17 16 15 14 13 13
10 9 10 13 15 14 11 12 10 12 8 8 11 10 3 2 8 3 7 13 3 7 7 11 13 13 13 12 12 10 10 9 11 10 13 13 13 14 16 17 17 17 17 17 17 16 14 14 15 16 16 16 17 17 17 17 17 16 17 15 14 13 12
12 12 9 9 12 14 15 15 13 13 12 9 9 12 6 2 3 3 2 6 6 6 10 11 12 10 11 13 6 9 10 11 6 6 10 12 12 14 16 16 15 15 15 16 16 17 17 18 18 19 17 17 17 19 17 16 17 18 18 16 13 12 13
3 1 4 2 1 8 13 16 16 13 17 16 14 10 5 9 6 6 3 7 4 4 1 6 8 7 5 3 5 10 10 8 3 5 8 9 10 12 13 12 12 11 12 12 12 13 14 14 14 16 15 15 15 15 16 15 17 17 16 14 13 14 17
6 10 6 5 1 4 9 10 12 15 15 17 9 4 3 10 11 12 7 12 6 5 1 2 4 9 11 12 10 8 9 8 5 5 6 7 9 9 12 12 11 11 12 14 14 14 13 13 14 14 14 15 15 15 15 16 16 16 14 13 12 14 17
13 12 14 15 12 10 4 2 5 10 18 14 6 11 4 10 5 12 10 10 4 2 1 3 6 6 10 12 12 7 8 9 8 6 7 7 10 11 11 11 11 15 14 11 11 12 12 13 14 13 13 14 14 14 15 14 13 13 13 12 13 13 15
13 11 6 2 5 5 11 8 10 9 13 12 12 3 9 12 6 9 9 8 6 7 8 7 9 8 11 14 11 9 10 10 8 6 6 8 8 10 13 12 9 7 9 15 14 13 13 15 14 13 14 14 14 13 13 14 12 12 13 12 12 13 14
14 14 14 11 14 15 15 16 15 15 14 14 16 12 12 7 6 12 9 8 11 10 10 10 11 10 9 9 9 8 8 9 8 5 5 5 7 9 9 11 13 16 13 12 13 14 15 14 13 12 13 13 13 12 13 13 13 12 11 12 13 13 14
18 18 18 13 11 16 15 18 17 17 17 16 19 15 12 11 12 13 8 10 11 10 11 11 12 12 12 13 15 13 5 1 3 6 10 12 12 11 14 14 13 13 14 13 14 15 14 13 14 14 12 12 11 11 12 12 13 14 13 13 14 14 13
15 15 16 10 14 11 12 15 18 18 19 19 20 18 16 15 12 13 10 14 16 13 12 11 12 12 10 8 3 2 6 11 9 10 11 13 13 15 16 16 15 14 14 14 14 14 13 14 14 14 12 12 13 14 13 13 13 12 11 13 13 14 17
13 15 14 12 13 15 17 15 13 16 17 18 20 20 18 15 14 8 4 9 10 9 6 7 3 2 1 2 7 11 9 8 11 12 13 13 14 15 13 12 13 13 13 13 13 13 14 14 15 14 13 12 11 13 12 12 12 11 11 11 12 14 18
7 6 9 13 14 17 19 20 19 12 11 12 8 9 5 9 9 10 9 6 7 7 9 8 7 5 4 8 11 9 8 11 12 12 12 13 13 12 11 10 10 12 13 13 14 15 15 14 14 12 11 10 10 12 11 10 11 10 11 12 14 14 14
4 4 4 8 10 8 11 16 17 16 13 11 10 11 10 15 14 11 10 10 7 12 7 7 8 10 11 9 8 9 9 8 11 12 13 12 12 11 11 11 12 13 15 15 14 14 12 12 12 12 10 10 10 10 10 11 10 11 12 13 12 12 12
5 3 2 5 5 9 10 9 17 18 18 17 15 12 11 12 11 7 8 8 9 7 4 9 10 11 11 11 7 3 3 5 9 11 9 10 10 11 12 13 13 11 9 8 9 10 9 9 9 10 12 12 11 10 9 9 11 11 11 11 11 11 13
4 1 2 4 8 9 3 2 1 11 19 20 21 19 15 13 12 6 4 7 8 11 10 11 9 6 3 5 4 4 3 3 5 5 3 4 9 11 11 10 10 9 9 8 8 8 9 11 12 11 10 8 7 8 9 10 10 10 10 10 10 11 13
1 3 2 3 2 5 8 5 2 3 0 4 8 5 4 7 12 12 12 12 10 5 5 6 1 1 3 4 4 3 3 3 6 8 8 9 8 9 9 11 11 12 12 12 12 11 10 9 9 9 10 9 9 9 10 10 10 10 9 10 11 12 15
5 2 3 8 6 7 3 3 2 2 4 10 14 12 12 13 9 10 12 10 6 5 6 5 5 6 6 3 2 4 2 2 2 3 6 8 7 4 5 9 10 10 11 11 9 8 8 8 8 8 8 9 9 9 9 9 9 9 10 11 12 12 14
1 5 7 5 6 7 5 3 4 4 6 9 9 5 4 3 7 8 9 10 8 7 6 7 9 9 7 6 3 3 2 1 4 4 6 9 10 9 8 5 7 7 7 7 8 8 9 8 7 7 8 9 9 9 9 9 10 10 11 11 11 12 13
3 3 4 4 6 5 5 6 7 8 10 9 6 3 10 6 9 9 11 10 10 11 11 11 11 10 8 6 2 2 2 2 5 8 8 8 9 8 7 8 9 8 7 8 9 9 10 9 7 8 9 10 9 8 8 9 10 10 10 10 11 13 14
3 2 4 7 2 4 7 10 12 14 12 5 3 9 7 8 7 8 9 10 10 9 9 11 10 10 9 5 4 2 1 4 7 10 12 11 11 10 10 10 9 9 9 9 9 8 8 8 8 9 9 9 9 8 8 8 9 9 10 10 10 10 12
5 3 6 4 5 1 9 14 19 17 9 4 8 11 2 4 4 5 7 7 7 6 10 11 7 1 5 9 9 7 7 10 10 10 11 12 12 13 13 11 9 7 5 7 9 9 7 7 7 8 8 8 8 7 8 7 9 8 8 8 9 10 11
10 6 6 7 7 2 7 16 19 11 2 8 10 2 5 4 3 3 6 7 5 3 2 5 8 9 11 11 10 9 7 10 11 12 14 15 15 13 12 10 9 8 8 9 10 10 7 7 7 6 6 7 7 7 7 7 7 5 7 8 8 9 11
2 2 4 3 4 2 13 19 12 4 6 4 2 2 6 6 5 7 9 9 8 11 12 10 14 15 14 15 14 14 12 11 10 9 10 12 12 11 10 10 9 9 9 10 10 9 6 5 4 5 6 8 7 6 6 6 5 6 7 7 9 10 12
6 2 3 1 1 6 10 10 4 9 9 9 6 4 7 6 6 9 11 10 10 11 14 15 14 14 14 11 12 15 15 14 12 11 11 11 11 11 11 11 10 11 10 9 8 7 5 4 4 3 4 6 6 6 6 5 6 7 7 8 9 11 11
6 5 3 2 3 6 7 7 7 9 9 8 8 6 7 5 7 6 9 11 10 10 13 14 14 14 13 13 9 10 10 13 12 12 11 10 10 10 10 10 9 9 10 9 8 7 5 5 4 3 2 3 5 5 5 6 7 7 7 9 10 11 11
3 3 1 3 5 3 7 7 8 10 10 10 10 8 8 9 7 8 7 8 8 8 7 13 11 11 10 13 13 12 10 10 11 12 11 10 9 9 9 8 8 8 8 8 8 8 6 5 4 4 2 1 2 3 5 5 6 6 7 9 10 10 10
6 3 5 6 6 4 5 6 9 8 9 8 8 7 8 7 8 10 11 9 11 10 12 13 12 12 11 12 11 11 10 11 11 11 11 10 9 9 9 6 4 5 6 7 7 6 5 4 3 3 2 2 1 3 5 5 6 7 8 9 10 9 10
3 1 10 6 8 5 4 4 6 8 10 10 9 7 8 9 12 12 12 12 12 11 12 11 12 12 11 12 10 10 9 8 8 9 9 8 8 8 7 6 6 6 7 8 6 4 4 2 2 2 2 2 3 4 5 6 7 8 8 9 9 9 10
2 5 3 11 10 8 5 3 5 6 5 5 9 10 11 12 15 14 15 15 13 13 11 10 12 14 12 12 12 12 9 9 10 10 9 10 10 9 10 8 7 5 4 5 5 4 3 2 2 3 3 3 4 6 6 6 7 8 7 8 9 8 8
5 7 8 14 13 6 6 4 5 5 7 5 6 9 11 12 12 12 15 14 13 13 13 12 12 13 10 11 12 13 11 10 10 9 8 8 8 8 6 5 5 3 4 4 4 3 2 3 3 2 3 3 4 6 6 6 7 7 7 6 9 8 8
1 4 5 7 3 12 6 6 5 2 1 7 11 9 9 10 11 11 13 13 14 14 13 11 12 11 11 11 12 14 12 10 10 9 10 9 8 7 5 4 4 4 4 4 3 2 1 1 2 2 3 4 5 5 6 5 6 5 5 5 5 7 7
4 5 7 7 5 7 9 7 7 5 2 8 13 10 8 10 12 12 13 11 12 9 10 11 11 11 12 12 13 12 11 11 11 11 10 9 8 6 5 4 4 3 3 2 2 1 2 2 2 2 3 3 4 5 5 5 4 4 5 5 6 6 6
2 5 12 11 12 12 8 6 5 6 5 7 9 10 11 11 12 12 11 9 8 8 8 9 8 8 11 11 11 10 10 9 9 7 7 8 9 8 7 7 7 6 5 4 2 1 0 0 1 1 1 0 1 3 4 6 7 7 7 7 7 7 8
Wind_Direction
194 195 152 200 164 213 152 165 210 207 120 183 81 60 21 62 189 225 153 252 249 298 282 266 260 246 259 236 239 226 218 198 181 197 193 196 199 199 196 199 199 195 191 192 192 190 192 192 189 190 191 191 194 192 192 194 196 194 190 193 196 193 194
226 214 191 188 207 165 116 205 197 79 15 323 189 222 130 214 221 204 173 210 228 185 248 176 292 243 253 246 224 228 204 173 197 207 193 192 196 195 193 194 194 191 193 191 192 193 192 190 190 192 193 192 193 191 191 191 192 195 196 195 194 191 192
183 165 192 219 209 183 219 230 132 184 170 203 146 196 201 185 214 220 190 226 243 205 228 214 245 231 250 257 245 210 193 199 211 209 200 197 196 192 194 200 198 196 195 194 194 195 193 191 190 191 192 188 188 192 194 194 194 198 195 192 192 192 195
139 169 179 217 201 175 42 116 177 0 199 193 172 198 127 194 233 205 216 183 227 194 222 204 238 245 248 265 262 212 217 206 208 208 201 193 189 191 193 196 195 195 196 195 194 192 191 191 190 194 191 189 194 196 193 197 200 196 191 187 187 193 197
136 208 191 217 206 192 184 197 187 185 221 349 287 151 208 200 216 208 230 217 202 184 207 217 224 230 233 240 255 244 223 217 214 205 193 188 194 193 192 193 194 194 196 197 197 194 194 193 192 191 191 193 198 198 197 197 194 193 193 193 192 196 195
205 215 181 216 215 211 200 201 199 195 167 173 196 216 102 216 207 195 197 240 156 184 186 207 218 221 225 230 241 258 256 234 218 208 197 192 193 193 192 194 194 195 193 192 190 188 188 187 188 189 192 196 198 198 201 198 200 198 198 196 196 193 190
217 212 190 212 224 207 203 202 210 197 210 201 204 226 175 161 239 49 272 274 241 174 192 204 215 229 234 240 223 254 258 264 249 203 208 198 193 191 196 197 197 193 187 184 180 179 181 184 187 190 192 195 195 198 199 198 197 199 198 196 190 182 188
264 278 66 111 129 218 207 208 211 190 214 212 222 227 137 206 148 198 164 230 216 171 134 230 240 252 284 338 224 239 253 258 231 192 200 191 186 193 193 192 188 182 174 168 169 175 181 186 188 190 193 195 197 200 201 199 201 200 198 194 184 181 194
229 231 220 224 109 208 216 210 206 206 209 210 225 84 64 231 184 201 183 234 183 196 111 232 238 253 255 251 237 219 250 261 239 208 197 189 185 182 188 185 178 168 173 177 183 185 184 186 190 191 191 192 196 200 200 201 203 199 194 190 178 176 190
220 209 207 212 201 203 201 263 193 211 207 187 133 213 161 230 152 202 216 230 157 202 336 219 227 233 255 257 256 246 241 256 245 211 198 186 185 189 183 176 170 183 181 172 175 182 184 190 192 190 191 195 199 200 202 201 202 197 194 188 178 172 186
223 228 229 171 156 142 219 192 211 182 214 194 200 151 211 219 155 209 214 231 210 207 208 216 222 218 232 244 241 228 234 241 237 219 202 194 190 180 184 181 176 143 162 182 182 179 186 191 192 192 194 197 199 198 199 199 199 195 188 180 172 178 184
222 218 215 200 193 206 206 214 210 201 192 194 206 203 223 120 121 230 204 191 217 204 201 208 222 221 230 246 252 252 242 236 226 202 175 186 186 183 169 171 174 184 180 171 175 181 187 191 188 189 193 195 195 194 194 193 194 189 182 178 178 182 186
221 224 225 202 197 218 209 212 211 204 194 189 206 209 211 159 212 232 186 180 207 208 209 207 215 213 214 223 225 225 224 26 196 188 193 194 190 181 183 187 182 170 173 174 178 183 188 186 186 190 190 193 193 193 194 193 195 198 188 181 183 184 186
228 230 229 197 199 217 229 217 212 203 198 198 203 206 206 194 218 228 208 186 207 205 210 213 219 219 220 236 263 54 216 219 197 195 197 196 190 188 190 188 183 179 175 172 178 179 179 182 184 187 188 189 192 193 195 193 194 196 175 179 180 188 201
234 235 233 218 212 216 226 227 222 212 204 201 203 209 205 197 217 214 213 196 224 226 227 229 220 35 354 248 221 218 210 190 189 197 199 196 195 197 194 182 178 173 171 172 173 176 180 183 186 188 189 190 188 195 194 191 188 184 173 177 181 186 203
233 226 234 226 215 217 224 228 223 209 207 211 204 225 172 184 203 218 218 219 231 238 216 234 249 257 243 234 233 221 207 202 195 197 200 194 195 195 189 177 169 164 172 173 175 180 183 185 184 185 183 182 180 194 187 185 186 177 179 181 185 188 191
275 274 274 268 215 210 235 232 227 214 198 206 200 212 191 202 192 202 206 222 214 232 206 198 219 219 230 246 250 236 222 204 203 207 204 195 185 181 165 170 177 178 178 179 179 180 178 177 181 183 170 171 186 185 184 184 172 177 185 186 184 185 184
280 26 55 135 163 221 230 218 217 208 210 203 213 212 206 219 210 213 209 214 216 215 153 199 217 209 216 224 250 306 310 220 214 220 206 188 179 168 173 181 181 176 165 164 173 173 164 164 164 164 176 186 188 180 175 167 173 180 181 184 182 179 187
276 69 189 198 232 240 236 43 341 215 216 209 210 215 212 211 208 228 263 246 232 216 209 208 219 227 43 28 345 298 243 211 205 208 233 192 171 179 170 164 165 155 154 143 142 145 157 169 177 179 182 177 158 161 168 171 177 177 182 176 178 175 186
234 251 193 246 237 344 317 336 24 92 94 241 211 249 246 224 212 208 223 223 221 207 224 235 179 204 133 85 58 13 311 239 198 186 189 184 197 193 174 158 149 153 158 158 164 174 174 165 168 173 172 166 159 167 170 172 173 176 174 174 175 178 190
294 310 284 280 317 280 218 244 173 149 185 173 182 206 217 196 200 197 218 233 234 229 228 210 170 156 164 182 94 44 11 275 285 196 149 146 136 129 138 150 155 160 161 162 157 136 142 158 159 166 155 155 157 155 163 170 163 168 173 179 182 179 186
315 308 313 298 270 271 226 134 34 359 342 319 321 293 214 149 198 205 212 225 212 204 186 172 158 161 166 211 197 25 13 208 155 128 127 140 142 150 153 124 118 116 110 110 123 141 140 146 146 139 140 146 147 151 159 157 164 173 182 188 183 185 185
280 297 316 300 290 283 44 38 355 348 332 323 300 234 231 165 190 198 204 211 206 191 176 165 160 164 193 196 127 41 4 185 152 126 111 111 109 113 125 138 131 126 123 125 131 130 135 128 128 129 136 141 146 154 160 166 174 179 189 186 179 184 188
291 295 275 290 290 324 20 353 344 329 324 324 226 217 214 158 181 184 190 206 194 188 169 155 171 176 180 147 127 113 144 133 118 113 112 108 108 107 104 91 96 101 113 118 115 114 112 109 122 134 138 145 149 155 158 163 174 186 189 187 182 178 190
280 246 291 273 257 132 16 351 331 323 309 257 213 211 144 100 161 156 178 194 169 163 162 165 145 14 71 116 127 132 130 111 93 90 96 100 102 102 100 96 94 106 107 102 100 100 104 117 124 132 143 143 145 145 151 167 188 192 180 174 170 172 179
281 296 277 281 289 69 342 346 333 317 246 196 213 35 313 305 92 110 147 130 124 142 54 81 101 113 107 114 114 107 101 97 100 101 103 101 94 91 97 112 124 123 112 101 97 88 85 104 114 130 140 130 127 137 156 184 189 169 168 169 169 173 179
133 230 259 309 299 76 14 348 335 54 290 2 334 5 27 20 71 94 85 96 102 106 93 91 103 108 108 107 103 93 80 70 72 80 85 87 93 96 97 83 68 78 72 67 66 70 73 80 105 128 128 121 127 143 172 175 159 164 167 169 177 188 195
201 180 201 205 207 322 8 10 331 343 326 315 311 48 77 27 72 80 87 73 79 97 111 111 101 100 103 99 107 104 100 93 84 73 73 79 83 83 82 86 86 84 83 78 80 75 77 78 83 96 122 125 144 155 162 150 155 162 169 173 185 197 196
177 191 188 220 35 338 17 5 341 318 330 341 338 40 57 59 39 13 80 87 83 92 104 99 99 94 87 91 77 86 102 105 99 87 76 73 79 83 84 84 88 91 97 102 104 99 96 93 83 82 72 119 139 156 145 149 161 167 171 182 194 199 200
125 45 71 124 88 342 354 354 354 360 359 359 1 22 60 37 39 28 55 48 61 55 41 89 75 80 94 92 90 85 81 86 101 105 90 77 77 78 81 76 71 83 92 96 104 106 102 101 107 107 90 128 181 153 140 157 161 171 175 190 195 200 202
158 187 202 165 124 83 57 360 345 5 14 14 356 24 37 41 44 51 44 53 54 56 58 63 71 59 58 69 64 63 57 55 51 64 79 76 63 58 57 42 67 95 98 90 83 87 89 94 92 105 146 173 194 129 158 168 172 178 188 192 198 199 202
225 188 162 127 109 108 85 43 0 6 1 23 34 39 49 57 53 49 41 44 44 47 55 52 67 62 55 60 58 57 51 46 48 48 49 55 73 71 76 62 33 47 63 76 76 71 73 82 108 142 161 186 176 181 180 184 180 183 191 195 196 201 202
48 44 91 117 98 110 105 108 67 35 1 10 52 46 57 62 62 58 55 52 51 49 49 52 65 66 54 56 61 62 50 43 41 41 41 42 40 36 39 38 35 38 41 73 84 83 83 119 172 172 186 177 183 185 187 184 178 186 187 185 195 200 199
182 173 197 147 134 178 162 158 121 144 119 92 55 57 54 60 59 59 65 56 55 55 49 52 62 69 62 57 63 61 55 49 46 48 53 60 62 59 54 47 45 47 53 67 82 94 123 170 179 174 159 175 183 197 194 194 189 192 184 180 197 203 200
207 36 152 335 351 111 78 112 126 121 57 90 77 62 62 55 54 51 57 58 47 46 45 42 59 63 60 57 63 62 53 45 44 46 47 48 51 55 50 67 62 57 53 61 69 98 128 169 187 174 173 182 190 198 194 192 193 194 186 182 193 212 203
27 28 63 38 13 86 107 96 102 93 93 106 99 92 71 68 64 61 63 58 66 47 45 44 43 56 59 54 62 66 58 48 44 43 43 49 48 50 53 47 39 42 68 90 101 117 160 185 187 178 171 177 187 207 205 198 191 199 199 199 213 212 206
75 61 87 89 83 72 70 71 53 57 44 78 85 84 83 80 75 72 66 62 57 60 64 64 45 51 69 69 66 66 66 59 51 44 45 46 42 38 30 23 18 12 10 10 355 337 275 262 341 27 53 131 200 240 226 222 219 219 220 221 220 195 176